Regional Weather Roundup
Issued by NWS

Home | Current Version | Previous Version | Text Only | Print | Product List | Glossary Off
Versions: 1 2 3 4 5 6 7 8 9 10 11 12 13 14 15 16 17 18 19 20 21 22 23 24 25 26 27 28 29 30 31 32 33 34 35 36 37 38 39 40 41 42 43 44 45 46 47 48 49 50

000
ASUS43 KIND 290459
RWRIN

WEATHER ROUNDUP FOR INDIANA
NATIONAL WEATHER SERVICE INDIANAPOLIS IN
100 AM EDT FRI APR 29 2016

NOTE: "FAIR" INDICATES FEW OR NO CLOUDS BELOW 12,000 FEET WITH NO
SIGNIFICANT WEATHER AND/OR OBSTRUCTIONS TO VISIBILITY.

* - STATION DOES NOT REPORT WEATHER SUCH AS PRECIPITATION OR FOG.

+ - STATION NOT QUALITY CONTROLLED BY THE NATIONAL WEATHER SERVICE.
    USE DATA WITH CAUTION...ESPECIALLY DEWPOINT AND RELATIVE
    HUMIDITY OBSERVATIONS.

INZ001>003-010>013-019-020-290600-
NORTHWEST INDIANA

CITY           SKY/WX    TMP DP  RH WIND       PRES   REMARKS
RENSSELAER +   RAIN      50  46  87 N5        29.99R

$$

LMZ046-743>745-290600-
SOUTHERN LAKE MICHIGAN

STATION/POSITION TIME  TEMP    WIND        PRES    WAVE
                       AIR SEA DIR/SP/G            HT
                 (UTC) (F)     (DEG/KT/KT) (MB)    (FT)
BURNS HARBOR     0413   44     310/  5/  7 1016.3S
MICHIGAN CITY    0400   45     210/  7/  7   N/A

$$

INZ004-005-014>016-021>024-290600-
NORTH CENTRAL INDIANA

CITY           SKY/WX    TMP DP  RH WIND       PRES   REMARKS
GOSHEN         CLOUDY    46  37  71 E6        30.00S
SOUTH BEND     CLOUDY    48  40  73 E8        30.00S

$$

INZ006>009-017-018-025>027-290600-
NORTHEAST INDIANA

CITY           SKY/WX    TMP DP  RH WIND       PRES   REMARKS
ANGOLA *+      CLOUDY    45  30  57 E3        30.00S
FORT WAYNE     CLOUDY    47  39  74 E5        30.01R

$$

INZ028-029-035-036-043>045-051>053-290600-
WEST CENTRAL INDIANA

CITY           SKY/WX    TMP DP  RH WIND       PRES   REMARKS
CRAWFORDSVL +  CLEAR     53  50  91 W9        29.99R
GREENCASTLE +  CLEAR     55  50  82 NW6       30.00R
LAFAYETTE      CLOUDY    55  52  89 S3        29.98R
TERRE HAUTE    CLEAR     55  46  71 NW5       30.00S

$$

INZ030>032-037>040-046>048-054>057-064-065-290600-
CENTRAL INDIANA

CITY           SKY/WX    TMP DP  RH WIND       PRES   REMARKS
CP ATTERBURY + CLEAR     54  52  94 CALM      29.98S FOG
INDIANAPOLIS   PTCLDY    57  52  83 W7        29.96S
-EAGLE CREEK   CLOUDY    58  53  84 CALM      29.97R
KOKOMO *+      CLOUDY    50  46  87 E7        29.98S
SHELBYVILLE    CLOUDY    58  54  86 CALM      29.97S

$$

INZ033-034-041-042-049-050-058-059-290600-
EAST CENTRAL INDIANA

CITY           SKY/WX    TMP DP  RH WIND       PRES   REMARKS
MUNCIE         CLOUDY    50  46  86 E8        29.98S FOG

$$

INZ060-061-067>069-081>083-085>088-290600-
SOUTHWEST INDIANA

CITY           SKY/WX    TMP DP  RH WIND       PRES   REMARKS
EVANSVILLE     CLEAR     61  52  72 NW5       30.00R
HUNTINGBURG *+ PTCLDY    59  50  72 NW3       30.00R

$$

INZ062-063-066-070>080-084-089>092-290600-
SOUTH CENTRAL AND SOUTHEAST INDIANA

CITY           SKY/WX    TMP DP  RH WIND       PRES   REMARKS
BLOOMINGTON    CLEAR     58  49  72 VRB5      29.99R
MADISON *+     CLEAR     61  50  67 CALM      29.99R
SEYMOUR +      CLEAR     59  52  77 CALM      29.98R

$$





USA.gov is the U.S. government's official web portal to all federal, state and local government web resources and services.